Location: Great Snoring
(52.8667°N, 0.8833°E)
Time: 04:10:37
(UTC+00:00)

Cosmos 2366 rocket - Pass Details

Date: 19 May 2025
Orbit: 955 x 996 km, 82.9° (Epoch: 13 June)

Event Time Altitude Azimuth Distance (km) Brightness Sun altitude
Rises 21:06:00 0° 349° (N) 3,729 8.3 -8.7°
Reaches altitude 10° 21:08:33 10° 352° (N) 2,776 7.4 -8.9°
Maximum altitude 21:14:57 75° 78° (ENE) 1,032 4.1 -9.5°
Enters shadow 21:21:09 11° 164° (SSE) 2,708 5.7 -10.1°
